SCP
2 2 1 1 1 2 2 1 1 1 1 1 1 1 1 1 1 1 1 1 0 0 1 1 1 1 1 1 1 1 1 1 1 1 0 0 0 0 0 0 0 0 0
2 2 1 1 1 2 1 1 1 1 1 1 1 1 1 1 1 1 1 1 0 0 1 1 1 1 1 1 1 1 1 1 1 1 1 0 0 0 0 0 0 0 0
1 1 1 1 1 1 1 1 1 1 1 1 1 1 1 1 1 1 1 1 1 0 1 1 1 1 1 1 1 1 1 1 1 1 1 0 0 0 0 0 0 0 1
1 1 1 1 1 1 1 2 2 2 1 1 1 1 1 1 1 1 1 1 1 1 1 1 1 1 1 1 1 1 1 1 1 1 1 1 1 1 0 0 0 0 1
1 1 1 1 1 1 1 1 2 2 2 1 1 1 1 1 1 1 1 1 1 1 1 1 1 1 1 1 1 1 1 1 1 1 1 1 1 1 1 0 0 0 0
1 1 1 1 1 1 1 1 1 2 2 2 1 1 1 1 1 1 1 1 1 1 1 1 1 1 1 1 1 1 1 1 1 1 1 1 1 1 1 1 1 1 0
1 1 1 1 1 1 1 1 1 1 2 2 2 1 1 1 1 1 1 1 1 1 1 1 1 1 1 1 1 1 1 1 1 1 1 1 1 1 1 1 1 1 1
1 1 1 1 1 1 1 1 1 1 2 2 2 2 1 1 1 1 1 1 1 1 1 1 1 1 1 1 1 1 1 1 1 1 1 1 1 1 1 1 1 1 1
0 1 1 1 1 2 1 1 1 1 1 2 2 2 1 1 1 1 1 1 1 1 1 1 1 1 1 1 1 1 1 1 1 1 1 1 1 1 1 1 1 1 1
0 0 1 1 1 2 2 1 1 1 1 2 2 2 1 1 1 1 1 1 1 1 1 1 1 1 1 1 1 1 1 1 1 1 1 1 1 1 1 1 1 1 1
0 0 1 1 1 1 2 2 1 1 1 2 2 2 2 1 1 1 1 1 1 1 1 1 1 1 1 1 1 1 1 1 1 1 2 2 1 1 1 1 1 1 1
0 0 1 1 1 1 2 2 2 1 1 1 2 2 2 1 1 1 1 1 1 1 1 1 1 1 1 1 1 1 0 1 1 1 1 2 2 1 1 1 1 1 1
0 0 1 1 1 1 1 2 2 2 1 1 1 2 2 1 1 1 1 1 1 1 1 1 1 1 1 1 1 0 0 0 1 1 1 1 1 1 1 1 1 1 1
0 0 1 1 1 1 1 1 2 2 2 1 1 1 2 2 1 1 1 1 1 1 1 1 1 1 1 1 1 0 0 0 0 0 1 1 1 1 1 1 1 1 1
0 0 1 1 1 1 1 1 1 2 2 2 1 1 1 1 1 1 1 1 1 1 1 1 1 1 1 1 1 0 0 0 0 0 0 0 1 1 1 1 1 1 1
0 0 1 1 1 1 1 1 1 1 1 1 1 1 1 1 1 1 1 1 1 1 1 1 1 1 1 1 0 1 0 0 0 0 0 0 0 0 0 0 1 1 1
0 0 1 1 1 1 1 1 0 0 1 1 1 1 1 1 1 1 1 1 1 1 1 1 1 1 1 1 0 0 0 0 0 0 0 0 0 0 0 0 0 0 0
0 0 1 1 1 1 1 1 0 0 0 0 1 1 1 1 1 1 1 1 1 1 1 0 0 1 1 0 0 0 0 0 0 0 0 0 0 0 0 0 0 0 0
0 0 1 1 1 1 1 0 0 0 0 0 0 0 0 1 1 1 1 1 0 0 0 0 0 0 0 0 0 0 0 0 0 0 0 0 0 0 0 0 0 0 0
0 0 0 0 0 0 0 0 0 0 0 0 0 0 0 0 0 0 0 0 0 0 0 0 0 0 0 0 0 0 0 0 0 0 0 0 0 0 0 0 0 0 0
0 0 0 0 0 0 0 0 0 0 0 0 0 0 0 0 0 0 0 0 0 0 0 0 0 0 0 0 0 0 0 0 0 0 0 0 0 0 0 0 0 0 0
0 0 0 0 0 0 0 0 0 0 0 0 0 0 0 0 0 0 0 0 0 0 0 0 0 0 0 0 0 0 0 0 0 0 0 0 0 0 0 0 0 0 0
0 0 0 0 0 0 0 0 0 0 0 0 0 0 0 0 0 0 0 0 0 0 0 0 0 0 0 0 0 0 0 0 0 0 0 0 0 0 0 0 0 0 0
0 0 0 0 0 0 0 0 0 0 0 0 0 0 0 0 0 0 0 0 0 0 0 0 0 0 0 0 0 0 0 0 0 0 0 0 0 0 0 0 0 0 0
0 0 0 0 0 0 0 0 0 0 0 0 0 0 0 0 0 0 0 0 0 0 0 0 0 0 0 0 0 0 0 0 0 0 0 0 0 0 0 0 0 0 0
0 0 0 0 0 0 0 0 0 0 0 0 0 0 0 0 0 0 0 0 0 0 0 0 0 0 0 0 0 0 0 0 0 0 0 0 0 0 0 0 0 0 0
Wind_Speed
3 3 3 3 4 4 4 5 5 7 7 8 8 9 9 10 9 8 5 9 12 14 15 16 16 16 15 15 15 15 14 14 13 13 12 12 12 11 11 11 10 10 9
3 3 4 4 4 4 5 5 7 6 6 6 8 9 10 10 10 10 8 8 12 14 16 17 17 17 17 17 17 16 15 15 15 14 14 13 13 13 12 12 12 11 11
4 4 4 4 4 5 5 5 7 6 6 7 9 10 9 10 10 10 10 8 8 12 16 18 18 18 18 18 18 17 16 16 15 15 15 15 14 13 13 13 13 12 12
5 4 4 4 5 4 4 5 5 6 6 7 7 8 8 8 11 11 10 10 8 8 12 16 17 18 18 18 18 18 17 16 15 15 15 15 15 15 15 15 14 13 13
5 4 4 4 5 4 4 5 5 6 6 7 7 8 8 9 9 10 11 11 10 10 9 9 14 15 16 18 18 18 18 16 16 16 16 16 16 16 17 16 16 15 15
5 5 4 5 4 4 4 5 6 6 6 6 7 8 8 9 9 9 10 10 9 11 11 10 9 10 15 17 18 19 19 18 17 17 17 17 17 18 18 18 17 17 17
6 5 4 5 4 4 5 6 6 7 6 5 6 6 7 9 10 8 8 9 9 9 10 10 9 8 7 13 16 17 18 19 18 17 17 18 18 18 19 19 19 18 18
6 5 5 4 4 4 5 6 5 5 5 4 4 5 5 6 6 7 7 7 8 7 8 9 9 9 7 6 7 12 15 17 18 18 18 18 18 19 20 20 19 19 18
5 5 5 5 4 4 4 5 6 6 6 5 5 4 5 5 4 5 7 7 6 6 6 6 7 7 8 6 6 7 9 12 16 17 17 17 17 18 19 20 19 19 18
5 5 6 5 5 4 5 5 5 6 6 5 5 5 7 7 6 5 5 5 5 6 6 5 5 5 6 5 5 5 5 8 12 15 15 15 15 16 17 18 18 17 16
5 6 6 5 5 5 5 5 5 6 5 6 5 5 6 6 7 7 7 5 4 4 4 5 4 4 5 4 3 4 5 6 9 11 13 14 14 14 15 15 16 16 15
4 6 6 5 5 5 5 6 5 6 5 6 5 5 5 5 5 6 8 7 6 5 4 3 3 3 3 3 3 4 4 5 8 10 12 12 12 13 13 14 14 15 15
4 6 6 6 5 5 5 5 5 5 5 5 5 4 4 5 5 6 7 7 7 6 4 3 3 3 3 3 3 3 3 5 6 9 11 11 11 10 11 12 13 14 14
4 6 6 6 6 6 5 5 4 4 4 5 5 5 4 4 4 5 6 6 7 6 5 4 2 3 2 3 4 4 4 5 6 8 9 10 10 9 10 11 12 12 12
4 6 5 5 5 5 5 5 4 4 4 4 4 5 4 4 4 4 5 5 6 7 6 4 3 3 3 3 4 4 5 6 6 7 8 8 9 9 9 9 11 11 11
4 5 5 5 5 5 5 4 4 4 4 4 3 4 4 3 3 4 4 4 4 5 6 3 3 3 3 3 4 5 5 7 6 7 7 8 9 9 9 9 10 10 11
4 4 5 5 5 5 5 4 4 4 4 4 4 4 4 4 3 3 3 3 3 4 5 4 3 4 5 5 5 6 6 6 5 7 8 9 10 10 11 10 10 10 10
3 4 4 4 4 5 5 5 4 4 4 4 4 4 4 4 4 4 3 3 3 4 4 6 4 4 5 6 6 7 6 5 6 7 8 10 11 11 11 11 11 12 11
2 3 3 3 4 4 4 5 4 4 4 4 5 5 5 5 5 4 4 4 3 4 4 5 5 4 4 4 6 6 6 6 6 7 8 10 10 11 11 12 12 12 11
2 2 2 3 3 3 4 4 4 4 4 4 4 5 5 5 5 5 4 5 4 4 4 4 4 4 4 5 5 6 6 6 6 6 7 8 9 10 11 12 12 12 11
1 1 2 2 3 3 3 4 3 3 4 4 4 4 5 6 7 6 4 5 5 4 4 4 4 4 4 5 5 5 7 7 7 5 6 7 7 6 7 9 10 10 11
0 1 1 2 2 2 5 5 4 3 3 3 4 4 4 5 6 6 6 6 7 5 5 5 4 5 6 6 6 6 7 7 6 4 7 8 7 7 6 7 10 13 13
1 1 1 1 2 3 5 5 4 3 3 3 4 4 4 4 6 5 4 5 5 6 6 6 6 6 7 7 8 8 7 8 8 8 8 8 7 8 7 8 13 13 14
2 2 1 1 2 2 4 4 3 2 2 3 4 4 5 5 5 6 5 5 5 5 6 5 5 6 7 8 8 8 9 9 9 7 6 8 7 8 9 8 11 12 13
3 2 2 1 2 2 3 4 4 2 2 3 3 4 5 5 6 7 5 5 5 5 5 6 7 8 9 10 9 6 6 6 7 6 5 6 7 8 9 8 8 10 13
3 2 2 2 2 2 2 4 4 2 3 3 3 3 5 7 8 8 6 5 6 6 6 6 6 7 6 7 8 6 5 6 6 6 4 5 6 7 7 6 6 7 8
Wind_Direction
294 287 275 269 266 267 258 254 253 252 250 251 250 249 248 243 244 243 238 210 225 238 243 244 242 239 237 237 237 236 234 232 234 235 235 233 234 237 239 241 243 245 246
299 291 284 278 275 270 266 260 258 257 256 253 254 253 251 250 248 247 249 229 221 233 242 245 246 244 242 241 240 239 236 234 234 234 234 235 236 237 240 242 243 244 246
305 295 288 285 282 277 272 266 263 259 257 255 253 252 252 252 250 249 246 247 236 226 233 242 245 247 246 244 243 242 239 234 234 235 235 236 237 236 239 242 243 243 245
313 301 290 285 288 283 273 268 263 261 257 257 258 255 252 250 252 252 249 243 243 242 231 232 241 246 248 248 248 246 242 237 234 235 237 238 237 236 238 240 242 242 244
315 302 293 293 293 284 275 271 267 265 263 262 263 262 258 254 253 252 250 249 245 244 246 231 228 239 246 248 248 248 247 243 238 235 236 237 238 237 237 239 240 241 243
323 311 299 299 297 287 280 273 270 266 265 266 266 265 263 260 255 253 253 251 247 244 244 246 238 232 234 242 246 247 247 247 244 241 238 238 238 239 239 240 240 241 242
332 321 312 307 301 290 290 289 280 272 267 268 268 267 260 255 252 250 250 252 250 248 248 247 246 248 236 231 239 247 249 250 249 247 244 241 239 240 241 241 241 241 243
337 327 320 311 308 299 295 294 290 285 280 268 269 278 272 258 245 253 253 253 255 256 253 252 251 250 253 249 236 238 247 252 253 253 249 246 243 242 242 243 243 243 242
337 333 323 313 307 300 296 296 290 282 277 269 258 262 271 269 291 255 250 251 258 263 261 263 262 263 260 257 256 240 243 252 257 258 257 252 248 244 243 245 246 246 244
340 338 330 323 314 304 295 290 285 280 277 273 268 259 264 280 277 279 264 262 268 270 274 274 270 266 265 264 269 288 274 259 260 262 262 260 259 255 251 247 247 248 247
337 340 336 329 323 314 307 298 291 285 277 273 270 268 264 265 262 268 276 276 276 275 276 274 274 274 275 271 275 297 302 282 275 272 270 269 268 267 262 259 254 249 248
329 340 334 328 323 317 313 306 296 291 285 279 275 270 268 265 263 263 269 276 275 273 276 280 278 283 287 281 292 329 328 309 294 286 280 277 278 276 276 270 266 260 252
325 334 332 327 323 320 317 312 305 299 295 289 282 276 270 267 271 268 269 276 275 273 268 277 286 283 284 288 297 326 311 304 301 297 293 288 286 288 287 287 278 272 267
320 325 326 325 323 323 320 315 309 309 307 300 296 291 282 280 280 275 273 276 276 271 265 267 288 287 294 299 323 314 299 311 304 296 296 300 303 298 292 290 290 286 280
314 320 322 325 326 325 323 318 312 314 312 308 306 305 298 297 296 290 285 280 276 275 272 273 278 306 304 307 329 308 306 322 313 304 305 305 306 301 292 289 286 284 282
315 318 326 331 333 334 332 327 322 323 325 328 321 318 316 315 312 312 309 300 287 277 276 292 300 318 322 315 326 311 308 314 305 306 307 306 303 303 299 288 284 282 281
317 322 328 333 339 342 342 340 339 336 336 338 335 333 332 326 320 323 323 320 312 296 279 289 302 315 316 317 318 313 306 303 301 304 302 301 299 298 298 295 288 283 282
319 325 327 335 343 345 345 345 345 345 343 342 341 340 335 333 335 331 327 322 313 309 295 292 300 308 311 320 316 312 313 311 305 309 304 300 297 296 295 294 291 284 279
317 326 331 338 344 349 349 350 347 349 352 350 349 349 346 343 348 345 337 326 320 317 308 294 295 305 305 320 316 312 314 313 310 308 303 299 297 295 293 291 292 286 279
309 328 338 343 345 349 351 353 350 353 358 3 3 359 357 355 352 344 339 334 327 319 311 299 297 305 308 317 313 313 314 315 309 306 305 303 301 297 293 292 291 287 280
305 327 336 344 350 352 357 351 347 352 0 3 4 3 7 4 358 352 346 338 333 324 319 309 305 308 311 320 319 319 309 312 304 308 311 306 304 298 298 297 292 289 286
281 317 335 349 0 8 5 2 351 352 358 357 355 352 352 352 356 358 4 360 350 335 323 313 309 310 316 319 318 313 311 309 305 322 315 304 302 298 301 297 301 298 290
223 239 287 330 350 9 1 7 8 345 351 350 343 339 339 344 340 339 346 348 353 353 339 315 310 311 312 315 312 307 305 301 294 307 305 294 300 295 298 300 303 299 297
224 235 260 300 317 353 357 359 349 334 348 351 347 342 337 339 348 337 329 332 336 341 338 328 317 314 314 313 307 299 297 296 290 288 290 285 296 297 301 297 300 299 297
217 223 238 264 284 315 350 347 332 328 334 344 346 346 340 339 347 338 331 326 324 327 335 331 323 318 317 318 315 305 303 300 296 301 306 290 298 303 297 290 294 300 300
214 214 225 245 267 294 340 337 324 315 321 330 336 340 353 350 346 343 337 331 328 331 330 326 323 322 321 326 325 312 303 298 298 299 315 305 301 312 301 288 296 303 299